Weather Roundup
Issued by NWS

Home | Current Version | Previous Version | Graphics & Text | Print | Product List | Glossary Off
Versions: 1 2 3 4 5 6 7 8 9 10 11 12 13 14 15 16 17 18 19 20 21 22 23 24 25 26 27 28 29 30 31 32 33 34 35 36 37 38 39 40 41 42 43 44 45 46 47 48 49 50

000
NZUS93 KARX 281759
HRRWXR

CURRENT HOURLY OBSERVATIONS ACROSS
MUCH OF THE UPPER MISSISSIPPI VALLEY
NATIONAL WEATHER SERVICE LA CROSSE WI
100 PM CDT THU JUL 28 2016


...SOUTHEAST MINNESOTA...


CITY           SKY/WX    TMP DP  RH WIND       PRES   REMARKS
ROCHESTER      LGT RAIN  68  66  93 N10       30.00F FOG
ROCHESTER/MAYO CLOUDY    67  67 100 N9G16     30.00S
WINONA         CLOUDY    66  63  88 N6        29.98F
AUSTIN         CLOUDY    70  63  78 NE12      30.00S
ALBERT LEA     CLOUDY    72  64  78 N6        30.01S
DODGE CENTER   CLOUDY    70  66  88 N10G16    30.01S
PRESTON        CLOUDY    68  64  85 N10       29.98F
OWATONNA       CLOUDY    72  64  78 N8        30.01F
FARIBAULT      CLOUDY    72  64  78 N7        30.03R
$$

...ELSEWHERE IN MINNESOTA...


CITY           SKY/WX    TMP DP  RH WIND       PRES   REMARKS
MINNEAPOLIS    CLOUDY    72  62  71 N9        30.03S
INTNL FALLS    SUNNY     74  55  51 N7        30.12S
DULUTH         CLOUDY    72  53  51 E12G20    30.11S
RED WING       CLOUDY    70  64  83 NE9G18    29.99F
REDWOOD FALLS  CLOUDY    71  62  73 N8        30.05F
MANKATO        CLOUDY    70  61  73 N8        30.04S
WORTHINGTON    CLOUDY    68  61  78 N8        30.07F
FAIRMONT       CLOUDY    68  63  83 N8        30.03S
$$

...SOUTHWEST WISCONSIN...


CITY           SKY/WX    TMP DP  RH WIND       PRES   REMARKS
LA CROSSE      LGT RAIN  68  66  93 N9        29.96R FOG
PRAIRIE DU CHI CLOUDY    73  66  79 NW8       29.94R
BOSCOBEL       CLOUDY    78  69  73 NE5       29.91S
LONE ROCK      NOT AVBL
PLATTEVILLE    CLOUDY    81  72  73 CALM      29.91R
FORT MC COY    CLOUDY    67  64  90 NE10      29.96F
MAUSTON-NEW LI CLOUDY    69  65  88 E3        29.95F
VIROQUA        CLOUDY    69  69 100 CALM      29.95S VSB 1/4
WIS DELLS      NOT AVBL
$$

...ELSEWHERE IN WISCONSIN...


CITY           SKY/WX    TMP DP  RH WIND       PRES   REMARKS
MILWAUKEE      PTSUNNY   77  67  71 NE14      29.92F
MADISON        CLOUDY    74  68  81 NE10      29.93R
GREEN BAY      CLOUDY    68  65  90 N14       30.00S
EAU CLAIRE     CLOUDY    66  64  94 NE7       30.01S FOG
BLACK RVR FLS  DRIZZLE   64  64 100 NE7       29.98S
MEDFORD        DRIZZLE   61  61 100 NE9       30.04S
WAUSAU         CLOUDY    60  58  92 NE6       30.02S
WIS RAPIDS     LGT RAIN  66  60  81 E7        30.00F
MARSHFIELD     CLOUDY    64  60  87 NE9       30.01S
RICE LAKE      CLOUDY    70  58  64 NE8       30.06S
$$

...NORTHEAST IOWA...


CITY           SKY/WX    TMP DP  RH WIND       PRES   REMARKS
WATERLOO       CLOUDY    76  66  71 N15       29.94F
DUBUQUE        PTSUNNY   77  70  79 W9        29.93R
DECORAH        CLOUDY    72  66  83 NW10      29.94F
MASON CITY     CLOUDY    72  64  76 N15       30.01F
CHARLES CITY   PTSUNNY   72  68  88 N10G17    29.98F
OELWEIN        CLOUDY    73  68  83 N9G17     29.96F
$$

...ELSEWHERE IN IOWA...


CITY           SKY/WX    TMP DP  RH WIND       PRES   REMARKS
DES MOINES     MOSUNNY   77  65  66 NE10      29.99S
IOWA CITY      PTSUNNY   79  65  62 N13       29.94F
FORT DODGE     CLOUDY    70  63  78 N7        30.02S
MARSHALLTOWN   MOSUNNY   77  65  66 N14       29.96F
CEDAR RAPIDS   PTSUNNY   76  68  76 NW9       29.93F
$$

...NORTHERN ILLINOIS...


CITY           SKY/WX    TMP DP  RH WIND       PRES   REMARKS
CHICAGO-OHARE  TSTM      74  71  91 S8        29.89S FOG
CHICAGO-MIDWAY PTSUNNY   82  71  69 NE9       29.87F
MOLINE         PTSUNNY   85  69  58 W14       29.89S
ROCKFORD       CLOUDY    74  67  78 E6        29.90S THUNDER
PEORIA         MOSUNNY   84  73  69 NW7       29.88F HX  90
$$

NOTE: "FAIR" INDICATES FEW OR NO CLOUDS BELOW 12,000 FEET WITH NO
SIGNIFICANT WEATHER AND/OR OBSTRUCTIONS TO VISIBILITY. WIND
SPEEDS ARE IN MILES-PER-HOUR.




USA.gov is the U.S. government's official web portal to all federal, state and local government web resources and services.